Location: Poughquag
(41.6090°N, 73.6820°W)
Time: 11:26:40
(UTC-05:00)

N. Korean satellite - Pass Details

Date: 19 January 2020
Orbit: 456 x 505 km, 97.2° (Epoch: 24 February)

Event Time Altitude Azimuth Distance (km) Brightness Sun altitude
Rises 06:26:28 0° 359° (N) 2,515 10.0 -9.6°
Reaches altitude 10° 06:28:44 10° 346° (NNW) 1,641 8.9 -9.2°
Maximum altitude 06:31:40 25° 289° (WNW) 996 7.5 -8.7°
Drops below altitude 10° 06:34:38 10° 233° (SW) 1,653 8.9 -8.2°
Sets 06:36:56 0° 220° (SW) 2,538 10.0 -7.8°
